When you browse on this site, cookies collect data to enhance your experience and personalize the content and advertising you see.
Visit our Privacy Policy to learn more. By continuing to use the site, you agree to this use of cookies and data.
  • In Austria
  • List of Countries
  • For 7 days
  • Water Temperature
  • Weather Map
  • News
  • Weather Widgets
  • user-avatar
    Login

    Hourly Weather Trujillo

    Today, 21 January, Tuesday

    Time Temperature Precipitation Wind Pressure Humidity
    00:00 +19°C° 0 mm 1 mps 646 mmHg 88%
    01:00 +19°C° 0 mm 1 mps 646 mmHg 86%
    02:00 +19°C° 0 mm 1 mps 646 mmHg 85%
    03:00 +18°C° 0 mm 1 mps 646 mmHg 85%
    04:00 +18°C° 0 mm 1 mps 646 mmHg 85%
    05:00 +19°C° 0 mm 1 mps 646 mmHg 84%
    06:00 +19°C° 0 mm 1 mps 647 mmHg 83%
    07:00 +20°C° 0 mm 1 mps 647 mmHg 83%
    08:00 +21°C° 0 mm 1 mps 648 mmHg 77%
    09:00 +23°C° 0 mm 1 mps 649 mmHg 71%
    10:00 +25°C° 0 mm 1 mps 649 mmHg 66%
    11:00 +25°C° 0.1 mm 1 mps 649 mmHg 64%
    12:00 +26°C° 0.1 mm 1 mps 648 mmHg 62%
    13:00 +27°C° 0.1 mm 1 mps 648 mmHg 60%
    14:00 +26°C° 0.3 mm 1 mps 647 mmHg 66%
    15:00 +25°C° 0.3 mm 1 mps 646 mmHg 72%
    16:00 +24°C° 0.3 mm 1 mps 645 mmHg 78%
    17:00 +23°C° 0.3 mm 1 mps 645 mmHg 83%
    18:00 +19°C° 0.3 mm 0 mps 645 mmHg 88%
    19:00 +18°C° 0.3 mm 0 mps 645 mmHg 92%
    20:00 +18°C° 0.1 mm 0 mps 646 mmHg 92%
    21:00 +18°C° 0.1 mm 0 mps 646 mmHg 91%
    22:00 +20°C° 0.1 mm 1 mps 646 mmHg 91%
    23:00 +19°C° 0 mm 1 mps 646 mmHg 91%

    Tomorrow, 22 January, Wednesday

    Time Temperature Precipitation Wind Pressure Humidity
    00:00 +19°C° 0 mm 1 mps 646 mmHg 91%
    01:00 +19°C° 0 mm 1 mps 645 mmHg 91%
    02:00 +19°C° 0 mm 1 mps 645 mmHg 90%
    03:00 +19°C° 0 mm 1 mps 645 mmHg 90%
    04:00 +18°C° 0 mm 1 mps 645 mmHg 89%
    05:00 +17°C° 0.1 mm 0 mps 645 mmHg 89%
    06:00 +17°C° 0.1 mm 0 mps 646 mmHg 88%
    07:00 +18°C° 0.1 mm 0 mps 646 mmHg 87%
    08:00 +19°C° 0.6 mm 0 mps 647 mmHg 84%
    09:00 +22°C° 0.6 mm 1 mps 648 mmHg 81%
    10:00 +24°C° 0.6 mm 1 mps 649 mmHg 78%
    11:00 +24°C° 1.4 mm 1 mps 648 mmHg 79%
    12:00 +24°C° 1.4 mm 1 mps 647 mmHg 80%
    13:00 +24°C° 1.4 mm 1 mps 647 mmHg 81%
    14:00 +23°C° 1.3 mm 1 mps 646 mmHg 83%
    15:00 +23°C° 1.3 mm 1 mps 646 mmHg 84%
    16:00 +23°C° 1.3 mm 1 mps 645 mmHg 86%
    17:00 +22°C° 0.5 mm 1 mps 645 mmHg 88%
    18:00 +20°C° 0.5 mm 1 mps 645 mmHg 90%
    19:00 +17°C° 0.5 mm 0 mps 645 mmHg 92%
    20:00 +19°C° 0 mm 1 mps 646 mmHg 92%
    21:00 +19°C° 0 mm 1 mps 646 mmHg 92%
    22:00 +19°C° 0 mm 1 mps 646 mmHg 92%
    23:00 +19°C° 0 mm 1 mps 646 mmHg 92%

    Day after tomorrow, 23 January, Thursday

    Time Temperature Precipitation Wind Pressure Humidity
    00:00 +19°C° 0 mm 1 mps 646 mmHg 92%
    01:00 +19°C° 0 mm 1 mps 646 mmHg 92%
    02:00 +19°C° 0 mm 1 mps 645 mmHg 92%
    03:00 +19°C° 0 mm 1 mps 645 mmHg 92%
    04:00 +19°C° 0 mm 1 mps 645 mmHg 92%
    05:00 +19°C° 0 mm 1 mps 645 mmHg 92%
    06:00 +19°C° 0 mm 1 mps 646 mmHg 91%
    07:00 +19°C° 0 mm 1 mps 646 mmHg 91%
    08:00 +21°C° 0.1 mm 1 mps 647 mmHg 86%
    09:00 +22°C° 0.1 mm 1 mps 648 mmHg 82%
    10:00 +23°C° 0.1 mm 1 mps 648 mmHg 78%
    11:00 +24°C° 0.7 mm 1 mps 648 mmHg 77%
    12:00 +24°C° 0.7 mm 1 mps 647 mmHg 76%
    13:00 +25°C° 0.7 mm 1 mps 647 mmHg 75%
    14:00 +24°C° 1.4 mm 1 mps 646 mmHg 79%
    15:00 +23°C° 1.4 mm 1 mps 646 mmHg 83%
    16:00 +22°C° 1.4 mm 1 mps 645 mmHg 87%
    17:00 +21°C° 0.8 mm 1 mps 645 mmHg 90%
    18:00 +20°C° 0.8 mm 1 mps 645 mmHg 92%
    19:00 +19°C° 0.8 mm 1 mps 645 mmHg 95%
    20:00 +19°C° 0.3 mm 1 mps 646 mmHg 94%
    21:00 +19°C° 0.3 mm 1 mps 646 mmHg 94%
    22:00 +19°C° 0.3 mm 1 mps 646 mmHg 94%
    23:00 +19°C° 0 mm 1 mps 646 mmHg 93%

    24 January, Friday

    Time Temperature Precipitation Wind Pressure Humidity
    00:00 +18°C° 0 mm 1 mps 646 mmHg 93%
    01:00 +18°C° 0 mm 1 mps 646 mmHg 93%
    02:00 +18°C° 0 mm 1 mps 645 mmHg 93%
    03:00 +18°C° 0 mm 1 mps 645 mmHg 93%
    04:00 +18°C° 0 mm 1 mps 645 mmHg 92%
    05:00 +18°C° 0 mm 1 mps 646 mmHg 91%
    06:00 +19°C° 0 mm 1 mps 647 mmHg 90%
    07:00 +19°C° 0 mm 1 mps 647 mmHg 89%
    08:00 +21°C° 0 mm 1 mps 648 mmHg 81%
    09:00 +23°C° 0 mm 1 mps 649 mmHg 73%
    10:00 +25°C° 0 mm 1 mps 650 mmHg 64%
    11:00 +26°C° 0 mm 1 mps 649 mmHg 63%
    12:00 +26°C° 0 mm 1 mps 649 mmHg 62%
    13:00 +27°C° 0 mm 2 mps 649 mmHg 61%
    14:00 +26°C° 0.2 mm 1 mps 648 mmHg 67%
    15:00 +24°C° 0.2 mm 1 mps 647 mmHg 72%
    16:00 +23°C° 0.2 mm 1 mps 646 mmHg 78%
    17:00 +22°C° 0.1 mm 1 mps 646 mmHg 83%
    18:00 +21°C° 0.1 mm 1 mps 646 mmHg 88%
    19:00 +17°C° 0.1 mm 0 mps 646 mmHg 93%
    20:00 +17°C° 0 mm 0 mps 646 mmHg 92%
    21:00 +19°C° 0 mm 1 mps 647 mmHg 91%
    22:00 +19°C° 0 mm 1 mps 647 mmHg 91%
    23:00 +19°C° 0.1 mm 1 mps 647 mmHg 91%

    25 January, Saturday

    Time Temperature Precipitation Wind Pressure Humidity
    00:00 +19°C° 0.1 mm 1 mps 647 mmHg 92%
    01:00 +19°C° 0.1 mm 1 mps 646 mmHg 93%
    02:00 +17°C° 0.1 mm 0 mps 646 mmHg 92%
    03:00 +16°C° 0.1 mm 0 mps 646 mmHg 92%
    04:00 +16°C° 0.1 mm 0 mps 646 mmHg 91%
    05:00 +16°C° 0.1 mm 0 mps 647 mmHg 90%
    06:00 +17°C° 0.1 mm 0 mps 647 mmHg 89%
    07:00 +17°C° 0.1 mm 0 mps 648 mmHg 88%
    08:00 +19°C° 0 mm 0 mps 649 mmHg 81%
    09:00 +23°C° 0 mm 1 mps 650 mmHg 74%
    10:00 +25°C° 0 mm 1 mps 650 mmHg 67%
    11:00 +25°C° 0.1 mm 1 mps 650 mmHg 69%
    12:00 +25°C° 0.1 mm 1 mps 649 mmHg 71%
    13:00 +25°C° 0.1 mm 1 mps 649 mmHg 72%
    14:00 +24°C° 0.5 mm 1 mps 648 mmHg 77%
    15:00 +23°C° 0.5 mm 1 mps 647 mmHg 82%
    16:00 +22°C° 0.5 mm 1 mps 646 mmHg 87%
    17:00 +21°C° 0.3 mm 1 mps 646 mmHg 90%
    18:00 +18°C° 0.3 mm 0 mps 646 mmHg 92%
    19:00 +17°C° 0.3 mm 0 mps 647 mmHg 95%
    20:00 +17°C° 0 mm 0 mps 647 mmHg 94%
    21:00 +17°C° 0 mm 0 mps 647 mmHg 92%
    22:00 +18°C° 0 mm 1 mps 647 mmHg 91%
    23:00 +18°C° 0 mm 1 mps 647 mmHg 91%

    26 January, Sunday

    Time Temperature Precipitation Wind Pressure Humidity
    00:00 +18°C° 0 mm 1 mps 647 mmHg 91%
    01:00 +18°C° 0 mm 1 mps 646 mmHg 91%
    02:00 +16°C° 0 mm 1 mps 646 mmHg 90%
    03:00 +16°C° 0 mm 1 mps 646 mmHg 90%
    04:00 +16°C° 0 mm 1 mps 646 mmHg 89%
    05:00 +16°C° 0 mm 1 mps 646 mmHg 87%
    06:00 +18°C° 0 mm 1 mps 647 mmHg 85%
    07:00 +18°C° 0 mm 1 mps 648 mmHg 84%
    08:00 +20°C° 0 mm 1 mps 648 mmHg 76%
    09:00 +23°C° 0 mm 1 mps 649 mmHg 67%
    10:00 +25°C° 0 mm 1 mps 650 mmHg 59%
    11:00 +25°C° 0.1 mm 1 mps 649 mmHg 62%
    12:00 +25°C° 0.1 mm 1 mps 649 mmHg 65%
    13:00 +25°C° 0.1 mm 1 mps 648 mmHg 67%
    14:00 +24°C° 0.4 mm 1 mps 647 mmHg 72%
    15:00 +23°C° 0.4 mm 1 mps 647 mmHg 77%
    16:00 +22°C° 0.4 mm 1 mps 646 mmHg 82%
    17:00 +21°C° 0.3 mm 1 mps 646 mmHg 85%
    18:00 +20°C° 0.3 mm 1 mps 646 mmHg 88%
    19:00 +17°C° 0.3 mm 0 mps 646 mmHg 91%
    20:00 +19°C° 0 mm 1 mps 646 mmHg 90%
    21:00 +18°C° 0 mm 1 mps 647 mmHg 89%
    22:00 +18°C° 0 mm 1 mps 647 mmHg 89%
    23:00 +18°C° 0 mm 1 mps 647 mmHg 88%
    Show more